This demonstration page uses our WeatherBlox Daily Observations layout. Learn more.

Left ArrowRight Arrow

Hourly Observations for September 13, 2018

Temp ( °F °C ) Dew Point ( °F °C ) Humidity (%) Winds ( mph kmh ) Pressure ( in mb ) Visibility ( mi km ) Precip ( " mm )
12:53 am 00:53 Mostly Clear 69 20.6 66 18.9 90 90 S 15 24 29.93 1013 10 16 0.00 0.00
1:07 am 01:07 Mostly Cloudy 69 20.6 66 18.9 90 90 S 14 22 29.91 1013 10 16 0.00 0.00
1:53 am 01:53 Cloudy 69 20.6 66 18.9 90 90 S 16 26 29.92 1013 10 16 0.00 0.00
2:53 am 02:53 Cloudy 69 20.6 66 18.9 90 90 S 15 24 29.91 1013 10 16 0.00 0.00
3:53 am 03:53 Cloudy 70 21.1 66 18.9 87 87 S 14 22 29.90 1013 10 16 0.00 0.00
4:53 am 04:53 Cloudy 70 21.1 66 18.9 87 87 S 15 24 29.88 1012 10 16 0.00 0.00
5:53 am 05:53 Cloudy 70 21.1 66 18.9 87 87 S 15 24 29.89 1012 10 16 0.00 0.00
6:48 am 06:48 Cloudy 70 21 66 19 88 88 S 14 22 29.88 1012 10 16 0.00 0.00
6:53 am 06:53 Cloudy 70 21.1 66 18.9 87 87 S 17 28 29.89 1012 10 16 0.00 0.00
7:32 am 07:32 Cloudy 70 21.1 66 18.9 87 87 S 16 26 29.88 1012 10 16 0.00 0.00
7:53 am 07:53 Cloudy 70 21.1 66 18.9 87 87 S 12 19 29.90 1013 10 16 0.00 0.00
8:08 am 08:08 Cloudy 70 21 66 19 88 88 S 12 19 29.88 1012 10 16 0.00 0.00
8:19 am 08:19 Cloudy 70 21.1 67 19.4 90 90 S 13 20 29.88 1012 10 16 0.00 0.00
8:48 am 08:48 Cloudy 72 22 66 19 83 83 S 16 26 29.91 1013 10 16 0.00 0.00
8:53 am 08:53 Cloudy 71 21.7 67 19.4 87 87 S 13 20 29.91 1013 10 16 0.00 0.00
9:53 am 09:53 Cloudy 72 22.2 67 19.4 84 84 S 14 22 29.92 1013 10 16 0.00 0.00
10:53 am 10:53 Cloudy 75 23.9 67 19.4 76 76 S 17 28 29.91 1013 10 16 0.00 0.00
11:53 am 11:53 Mostly Cloudy 79 26.1 67 19.4 67 67 S 17 28 29.90 1012 10 16 0.00 0.00
12:53 pm 12:53 Mostly Cloudy 81 27.2 68 20 65 65 S 21 33 29.88 1012 10 16 0.00 0.00
1:19 pm 13:19 Partly Cloudy 82 27.8 68 20 63 63 S 23 37 29.83 1010 10 16 0.00 0.00
1:53 pm 13:53 Partly Cloudy 82 27.8 69 20.6 65 65 S 17 28 29.88 1012 10 16 0.00 0.00
2:53 pm 14:53 Mostly Sunny 84 28.9 68 20 59 59 S 18 30 29.86 1011 10 16 0.00 0.00
3:53 pm 15:53 Mostly Sunny 85 29.4 69 20.6 59 59 S 21 33 29.85 1011 10 16 0.00 0.00
4:53 pm 16:53 Partly Cloudy 85 29.4 69 20.6 59 59 S 18 30 29.85 1011 10 16 0.00 0.00
5:53 pm 17:53 Partly Cloudy 84 28.9 68 20 59 59 S 17 28 29.85 1011 10 16 0.00 0.00
6:53 pm 18:53 Sunny 83 28.3 68 20 61 61 S 16 26 29.85 1011 10 16 0.00 0.00
7:53 pm 19:53 Clear 79 26.1 68 20 69 69 SSE 9 15 29.87 1012 10 16 0.00 0.00
8:53 pm 20:53 Clear 77 25 69 20.6 77 77 SSE 12 19 29.88 1012 10 16 0.00 0.00
9:53 pm 21:53 Clear 75 23.9 68 20 79 79 SSE 10 17 29.91 1013 10 16 0.00 0.00
10:53 pm 22:53 Clear 73 22.8 68 20 84 84 SSE 12 19 29.92 1013 10 16 0.00 0.00
11:53 pm 23:53 Clear 72 22.2 68 20 87 87 S 12 19 29.93 1013 10 16 0.00 0.00

Powered by AerisWeather